Tracking 29892 objects as of 21-Nov-2024
HD Live streaming from Space Station
objects crossing your sky now

COSMOS 1867 COOLANT

Track COSMOS 1867 COOLANT now!
10-day predictions


NORAD ID: 39639
Int'l Code: 1987-060G
Perigee: 775.3 km
Apogee: 802.8 km
Inclination: 65.0 °
Period: 100.5 minutes
Semi major axis: 7160 km
RCS: Unknown
Launch date: July 10, 1987
Source: Commonwealth of Independent States (former USSR) (CIS)
Launch site: TYURATAM MISSILE AND SPACE COMPLEX (TTMTR)

Note: This is SATELLITE DEBRIS
Your satellite tracking list
Your tracking list is empty




NASA's NSSDC Master Catalog

Two Line Element Set (TLE):
1 39639U 87060G   24326.02264822  .00000561  00000-0  24119-3 0  9996
2 39639  65.0050 183.6238 0019218 262.5197  97.3705 14.32943905739439
Source of the keplerian elements: AFSPC